| time (UTC) | temp F | wind direction | speed MPH | gust MPH | rain 1hr in | rain 24hr in | rain mn in | humidity % | barometer mb |
| 20260906183003 | 47 | 94 | 5.0 | 6.0 | 0.00 | 0.07 | 0.01 | 90 | 1026.5 |
| 20260906182503 | 48 | 94 | 4.0 | 8.0 | 0.00 | 0.07 | 0.01 | 90 | 1026.4 |
| 20260906182025 | 48 | 108 | 3.0 | 8.0 | 0.00 | 0.07 | 0.01 | 90 | 1026.5 |
| 20260906181504 | 48 | 117 | 4.0 | 6.0 | 0.00 | 0.07 | 0.01 | 90 | 1026.7 |
| 20260906181004 | 48 | 86 | 6.0 | 8.0 | 0.00 | 0.07 | 0.01 | 90 | 1026.4 |
| 20260906180524 | 48 | 87 | 6.0 | 9.0 | 0.00 | 0.07 | 0.01 | 90 | 1026.4 |
| 20260906180004 | 48 | 88 | 6.0 | 9.0 | 0.00 | 0.07 | 0.01 | 90 | 1026.4 |
| 20260906175524 | 48 | 87 | 5.0 | 9.0 | 0.00 | 0.07 | 0.01 | 90 | 1026.4 |
| 20260906175003 | 49 | 89 | 4.0 | 9.0 | 0.00 | 0.07 | 0.01 | 90 | 1026.5 |
| 20260906174503 | 49 | 94 | 4.0 | 6.0 | 0.00 | 0.07 | 0.01 | 90 | 1026.5 |
| 20260906174003 | 49 | 91 | 4.0 | 8.0 | 0.00 | 0.07 | 0.01 | 90 | 1026.5 |
| 20260906173503 | 49 | 92 | 3.0 | 8.0 | 0.00 | 0.08 | 0.01 | 90 | 1026.4 |
| 20260906173004 | 50 | 96 | 3.0 | 6.0 | 0.00 | 0.08 | 0.01 | 90 | 1026.4 |
| 20260906172504 | 50 | 96 | 3.0 | 5.0 | 0.00 | 0.08 | 0.01 | 90 | 1026.4 |
| 20260906172004 | 50 | 99 | 2.0 | 6.0 | 0.00 | 0.08 | 0.01 | 90 | 1026.5 |
| 20260906171503 | 50 | 108 | 0.0 | 6.0 | 0.00 | 0.08 | 0.01 | 90 | 1026.7 |
| 20260906171003 | 51 | 157 | 0.0 | 3.0 | 0.00 | 0.08 | 0.01 | 91 | 1026.7 |
| 20260906170503 | 51 | 0 | 0.0 | 0.0 | 0.00 | 0.08 | 0.01 | 91 | 1026.5 |
| 20260906170003 | 51 | 157 | 0.0 | 1.0 | 0.00 | 0.08 | 0.01 | 91 | 1026.4 |
| 20260906165503 | 50 | 157 | 0.0 | 1.0 | 0.01 | 0.08 | 0.01 | 91 | 1026.4 |
| 20260906165004 | 50 | 157 | 0.0 | 3.0 | 0.01 | 0.08 | 0.01 | 90 | 1026.4 |
| 20260906164503 | 50 | 157 | 0.0 | 3.0 | 0.01 | 0.08 | 0.01 | 91 | 1026.5 |
| 20260906164024 | 50 | 157 | 0.0 | 1.0 | 0.01 | 0.08 | 0.01 | 91 | 1026.4 |
| 20260906163503 | 50 | 152 | 0.0 | 3.0 | 0.01 | 0.08 | 0.01 | 91 | 1026.4 |
| 20260906163004 | 50 | 143 | 1.0 | 5.0 | 0.01 | 0.08 | 0.01 | 91 | 1026.4 |
| 20260906162504 | 50 | 108 | 2.0 | 5.0 | 0.01 | 0.08 | 0.01 | 91 | 1026.4 |
| 20260906162003 | 49 | 106 | 3.0 | 5.0 | 0.01 | 0.08 | 0.01 | 91 | 1026.3 |
| 20260906161503 | 49 | 109 | 3.0 | 5.0 | 0.01 | 0.08 | 0.01 | 91 | 1026.3 |
| 20260906161003 | 49 | 111 | 3.0 | 6.0 | 0.01 | 0.08 | 0.01 | 91 | 1026.2 |
| 20260906160524 | 49 | 109 | 3.0 | 6.0 | 0.01 | 0.08 | 0.01 | 91 | 1026.3 |
| 20260906160004 | 49 | 105 | 4.0 | 5.0 | 0.01 | 0.08 | 0.01 | 91 | 1026.3 |
| 20260906155503 | 48 | 99 | 6.0 | 8.0 | 0.00 | 0.07 | 0.00 | 91 | 1026.3 |
| 20260906155004 | 48 | 94 | 6.0 | 9.0 | 0.00 | 0.07 | 0.00 | 91 | 1026.4 |
| 20260906154504 | 48 | 92 | 7.0 | 9.0 | 0.00 | 0.07 | 0.00 | 91 | 1026.4 |
| 20260906154004 | 48 | 92 | 7.0 | 9.0 | 0.00 | 0.07 | 0.00 | 90 | 1026.4 |
| 20260906153524 | 48 | 92 | 8.0 | 10.0 | 0.00 | 0.07 | 0.00 | 90 | 1026.4 |
| 20260906153004 | 48 | 92 | 8.0 | 10.0 | 0.00 | 0.07 | 0.00 | 90 | 1026.3 |
| 20260906152503 | 48 | 90 | 9.0 | 11.0 | 0.00 | 0.07 | 0.00 | 90 | 1026.3 |
| 20260906152003 | 48 | 90 | 9.0 | 11.0 | 0.00 | 0.07 | 0.00 | 90 | 1026.3 |
| 20260906151504 | 48 | 91 | 8.0 | 11.0 | 0.00 | 0.07 | 0.00 | 90 | 1026.2 |
| 20260906151003 | 48 | 92 | 8.0 | 11.0 | 0.00 | 0.07 | 0.00 | 90 | 1026.3 |
| 20260906150524 | 48 | 93 | 8.0 | 11.0 | 0.00 | 0.07 | 0.00 | 91 | 1026.3 |
| 20260906150004 | 48 | 95 | 7.0 | 11.0 | 0.00 | 0.07 | 0.00 | 90 | 1026.2 |
| 20260906145503 | 47 | 96 | 7.0 | 11.0 | 0.00 | 0.07 | 0.00 | 90 | 1026.1 |
| 20260906145003 | 47 | 101 | 6.0 | 10.0 | 0.00 | 0.07 | 0.00 | 90 | 1026.1 |
| 20260906144524 | 47 | 108 | 6.0 | 10.0 | 0.00 | 0.07 | 0.00 | 90 | 1026.2 |
| 20260906144003 | 47 | 105 | 6.0 | 10.0 | 0.00 | 0.07 | 0.00 | 90 | 1026.0 |
| 20260906143503 | 47 | 106 | 6.0 | 9.0 | 0.00 | 0.07 | 0.00 | 90 | 1026.0 |
| 20260906143027 | 47 | 109 | 6.0 | 9.0 | 0.00 | 0.07 | 0.00 | 90 | 1025.9 |
| 20260906142503 | 47 | 107 | 6.0 | 9.0 | 0.00 | 0.07 | 0.07 | 90 | 1026.0 |
| 20260906142025 | 47 | 106 | 5.0 | 9.0 | 0.00 | 0.07 | 0.07 | 90 | 1025.9 |
| 20260906141524 | 47 | 110 | 5.0 | 9.0 | 0.00 | 0.07 | 0.07 | 90 | 1025.9 |
| 20260906141003 | 47 | 112 | 4.0 | 8.0 | 0.00 | 0.07 | 0.07 | 90 | 1025.9 |
| 20260906140524 | 47 | 111 | 5.0 | 8.0 | 0.00 | 0.07 | 0.07 | 90 | 1025.7 |
| 20260906140004 | 48 | 103 | 6.0 | 8.0 | 0.00 | 0.07 | 0.07 | 90 | 1025.7 |
| 20260906135503 | 48 | 94 | 7.0 | 9.0 | 0.00 | 0.07 | 0.07 | 90 | 1025.6 |
| 20260906135004 | 48 | 91 | 8.0 | 10.0 | 0.00 | 0.07 | 0.07 | 90 | 1025.5 |
| 20260906134503 | 48 | 91 | 7.0 | 10.0 | 0.00 | 0.07 | 0.07 | 90 | 1025.4 |
| 20260906134004 | 47 | 92 | 6.0 | 9.0 | 0.00 | 0.07 | 0.07 | 90 | 1025.5 |
| 20260906133504 | 47 | 95 | 5.0 | 9.0 | 0.00 | 0.07 | 0.07 | 89 | 1025.5 |
| 20260906133025 | 47 | 100 | 5.0 | 8.0 | 0.00 | 0.07 | 0.07 | 89 | 1025.6 |
| 20260906132504 | 48 | 104 | 5.0 | 6.0 | 0.00 | 0.07 | 0.07 | 89 | 1025.7 |
| 20260906132004 | 48 | 104 | 5.0 | 6.0 | 0.00 | 0.07 | 0.07 | 89 | 1025.6 |
| 20260906131504 | 48 | 104 | 4.0 | 6.0 | 0.00 | 0.07 | 0.07 | 89 | 1025.6 |
| 20260906131004 | 48 | 103 | 4.0 | 6.0 | 0.00 | 0.07 | 0.07 | 89 | 1025.6 |
| 20260906130504 | 49 | 100 | 4.0 | 6.0 | 0.00 | 0.07 | 0.07 | 89 | 1025.6 |
| 20260906130004 | 49 | 95 | 4.0 | 6.0 | 0.00 | 0.07 | 0.07 | 89 | 1025.5 |
| 20260906125504 | 49 | 98 | 4.0 | 6.0 | 0.00 | 0.07 | 0.07 | 89 | 1025.4 |
| 20260906125004 | 49 | 108 | 5.0 | 6.0 | 0.00 | 0.07 | 0.07 | 89 | 1025.4 |
| 20260906124525 | 50 | 103 | 6.0 | 8.0 | 0.00 | 0.07 | 0.07 | 89 | 1025.3 |
| 20260906124025 | 50 | 97 | 5.0 | 8.0 | 0.00 | 0.07 | 0.07 | 89 | 1025.1 |
| 20260906123525 | 50 | 95 | 4.0 | 8.0 | 0.00 | 0.07 | 0.07 | 89 | 1024.9 |
| 20260906123025 | 50 | 95 | 4.0 | 8.0 | 0.00 | 0.07 | 0.07 | 89 | 1025.0 |
| 20260906122525 | 50 | 94 | 4.0 | 8.0 | 0.00 | 0.07 | 0.07 | 89 | 1025.0 |
| 20260906122004 | 50 | 99 | 4.0 | 6.0 | 0.00 | 0.07 | 0.07 | 89 | 1024.9 |
| 20260906121525 | 50 | 100 | 4.0 | 6.0 | 0.00 | 0.07 | 0.07 | 89 | 1024.9 |
| 20260906121004 | 50 | 99 | 3.0 | 6.0 | 0.00 | 0.07 | 0.07 | 88 | 1025.0 |
| 20260906120504 | 51 | 105 | 3.0 | 5.0 | 0.00 | 0.07 | 0.07 | 88 | 1025.0 |
| 20260906120004 | 51 | 114 | 2.0 | 5.0 | 0.00 | 0.07 | 0.07 | 88 | 1025.0 |
| 20260906115525 | 51 | 118 | 2.0 | 8.0 | 0.00 | 0.07 | 0.07 | 89 | 1024.9 |
| 20260906115004 | 51 | 118 | 0.0 | 8.0 | 0.00 | 0.07 | 0.07 | 89 | 1024.9 |
| 20260906114504 | 51 | 156 | 0.0 | 6.0 | 0.00 | 0.07 | 0.07 | 89 | 1025.0 |
| 20260906114004 | 51 | 161 | 0.0 | 6.0 | 0.00 | 0.07 | 0.07 | 89 | 1024.9 |
| 20260906113504 | 51 | 174 | 0.0 | 3.0 | 0.00 | 0.07 | 0.07 | 89 | 1025.0 |
| 20260906113004 | 51 | 175 | 0.0 | 5.0 | 0.00 | 0.07 | 0.07 | 88 | 1025.0 |
| 20260906112504 | 50 | 178 | 0.0 | 5.0 | 0.00 | 0.07 | 0.07 | 88 | 1024.8 |
| 20260906112004 | 50 | 0 | 0.0 | 0.0 | 0.00 | 0.07 | 0.07 | 88 | 1024.8 |
| 20260906111504 | 50 | 0 | 0.0 | 0.0 | 0.00 | 0.07 | 0.07 | 88 | 1024.8 |
| 20260906111004 | 50 | 0 | 0.0 | 0.0 | 0.00 | 0.07 | 0.07 | 88 | 1024.7 |
| 20260906110504 | 50 | 0 | 0.0 | 0.0 | 0.00 | 0.07 | 0.07 | 87 | 1024.6 |
| 20260906110025 | 50 | 0 | 0.0 | 0.0 | 0.00 | 0.07 | 0.07 | 87 | 1024.5 |
| 20260906105504 | 50 | 0 | 1.0 | 0.0 | 0.00 | 0.07 | 0.07 | 87 | 1024.3 |
| 20260906105004 | 50 | 94 | 1.0 | 4.0 | 0.00 | 0.07 | 0.07 | 87 | 1024.3 |
| 20260906104504 | 51 | 94 | 1.0 | 5.0 | 0.00 | 0.07 | 0.07 | 87 | 1024.2 |
| 20260906104004 | 51 | 94 | 1.0 | 5.0 | 0.00 | 0.07 | 0.07 | 86 | 1024.1 |
| 20260906103504 | 51 | 94 | 1.0 | 3.0 | 0.00 | 0.08 | 0.07 | 86 | 1024.0 |
| 20260906103004 | 51 | 94 | 1.0 | 5.0 | 0.00 | 0.08 | 0.07 | 86 | 1023.9 |
| 20260906102504 | 51 | 99 | 2.0 | 5.0 | 0.00 | 0.08 | 0.07 | 86 | 1023.9 |
| 20260906102004 | 52 | 101 | 3.0 | 5.0 | 0.00 | 0.08 | 0.07 | 86 | 1023.9 |
| 20260906101525 | 52 | 100 | 3.0 | 6.0 | 0.00 | 0.08 | 0.07 | 86 | 1023.9 |
| 20260906101004 | 52 | 101 | 4.0 | 6.0 | 0.00 | 0.08 | 0.07 | 86 | 1023.8 |
| 20260906100504 | 52 | 104 | 4.0 | 6.0 | 0.00 | 0.08 | 0.07 | 85 | 1023.8 |
| 20260906100025 | 52 | 108 | 4.0 | 6.0 | 0.00 | 0.08 | 0.07 | 85 | 1023.8 |
| 20260906095504 | 52 | 109 | 4.0 | 5.0 | 0.00 | 0.08 | 0.07 | 85 | 1023.8 |
| 20260906095004 | 52 | 124 | 3.0 | 5.0 | 0.00 | 0.08 | 0.07 | 84 | 1023.8 |
| 20260906094504 | 52 | 136 | 2.0 | 5.0 | 0.00 | 0.08 | 0.07 | 84 | 1023.8 |
| 20260906094025 | 52 | 138 | 1.0 | 4.0 | 0.00 | 0.08 | 0.07 | 84 | 1023.7 |
| 20260906093504 | 53 | 158 | 0.0 | 5.0 | 0.00 | 0.08 | 0.07 | 84 | 1023.8 |
| 20260906093004 | 53 | 169 | 1.0 | 5.0 | 0.00 | 0.08 | 0.07 | 83 | 1023.7 |
| 20260906092504 | 53 | 140 | 1.0 | 5.0 | 0.00 | 0.08 | 0.07 | 82 | 1023.8 |
| 20260906092004 | 54 | 150 | 1.0 | 5.0 | 0.00 | 0.08 | 0.07 | 82 | 1023.8 |
| 20260906091504 | 54 | 161 | 0.0 | 4.0 | 0.00 | 0.08 | 0.07 | 81 | 1023.8 |
| 20260906091004 | 55 | 171 | 0.0 | 1.0 | 0.00 | 0.08 | 0.07 | 81 | 1023.9 |
| 20260906090504 | 55 | 171 | 0.0 | 1.0 | 0.00 | 0.08 | 0.07 | 80 | 1023.9 |
| 20260906090004 | 56 | 171 | 0.0 | 1.0 | 0.00 | 0.08 | 0.07 | 79 | 1023.8 |
| 20260906085504 | 56 | 171 | 0.0 | 1.0 | 0.00 | 0.08 | 0.07 | 79 | 1023.9 |
| 20260906085025 | 56 | 171 | 1.0 | 1.0 | 0.00 | 0.08 | 0.07 | 78 | 1023.9 |
| 20260906084504 | 57 | 175 | 1.0 | 5.0 | 0.00 | 0.08 | 0.07 | 78 | 1023.9 |
| 20260906084025 | 57 | 178 | 2.0 | 5.0 | 0.00 | 0.08 | 0.07 | 77 | 1023.8 |
| 20260906083504 | 58 | 205 | 4.0 | 8.0 | 0.00 | 0.08 | 0.07 | 77 | 1023.8 |
| 20260906083004 | 58 | 214 | 5.0 | 9.0 | 0.00 | 0.08 | 0.07 | 76 | 1023.7 |
| 20260906082503 | 58 | 214 | 5.0 | 10.0 | 0.00 | 0.08 | 0.07 | 76 | 1023.7 |
| 20260906082004 | 58 | 219 | 5.0 | 10.0 | 0.00 | 0.08 | 0.07 | 75 | 1023.8 |
| 20260906081503 | 58 | 231 | 5.0 | 10.0 | 0.00 | 0.08 | 0.07 | 75 | 1023.8 |
| 20260906081004 | 59 | 236 | 6.0 | 10.0 | 0.00 | 0.08 | 0.07 | 75 | 1023.7 |
| 20260906080504 | 59 | 238 | 6.0 | 11.0 | 0.00 | 0.08 | 0.07 | 74 | 1023.6 |
| 20260906080025 | 59 | 240 | 6.0 | 13.0 | 0.00 | 0.08 | 0.07 | 74 | 1023.5 |
| 20260906075504 | 59 | 241 | 6.0 | 13.0 | 0.00 | 0.08 | 0.07 | 74 | 1023.5 |
| 20260906075004 | 60 | 234 | 6.0 | 9.0 | 0.00 | 0.08 | 0.07 | 73 | 1023.4 |
| 20260906074504 | 60 | 225 | 6.0 | 9.0 | 0.00 | 0.08 | 0.07 | 72 | 1023.3 |
| 20260906074004 | 61 | 232 | 7.0 | 9.0 | 0.00 | 0.08 | 0.07 | 71 | 1023.2 |
| 20260906073504 | 61 | 254 | 7.0 | 10.0 | 0.00 | 0.08 | 0.07 | 71 | 1023.2 |
| 20260906073004 | 61 | 253 | 7.0 | 11.0 | 0.00 | 0.08 | 0.07 | 70 | 1023.1 |
| 20260906072504 | 62 | 232 | 7.0 | 11.0 | 0.00 | 0.08 | 0.07 | 70 | 1023.0 |
| 20260906072003 | 62 | 214 | 6.0 | 11.0 | 0.00 | 0.08 | 0.07 | 71 | 1023.0 |
| 20260906071525 | 61 | 230 | 6.0 | 10.0 | 0.00 | 0.08 | 0.07 | 71 | 1023.0 |
| 20260906071003 | 61 | 263 | 6.0 | 10.0 | 0.00 | 0.08 | 0.07 | 72 | 1022.9 |
| 20260906070504 | 62 | 265 | 6.0 | 11.0 | 0.00 | 0.08 | 0.07 | 71 | 1022.8 |
| 20260906070004 | 62 | 236 | 6.0 | 13.0 | 0.00 | 0.08 | 0.07 | 69 | 1022.8 |
| 20260906065504 | 63 | 234 | 6.0 | 13.0 | 0.00 | 0.08 | 0.07 | 70 | 1022.8 |
| 20260906065004 | 63 | 252 | 6.0 | 10.0 | 0.00 | 0.08 | 0.07 | 71 | 1022.7 |
| 20260906064504 | 62 | 261 | 6.0 | 13.0 | 0.00 | 0.08 | 0.07 | 72 | 1022.8 |
| 20260906064004 | 61 | 259 | 6.0 | 13.0 | 0.00 | 0.08 | 0.07 | 72 | 1022.8 |
| 20260906063503 | 61 | 254 | 6.0 | 11.0 | 0.00 | 0.08 | 0.07 | 72 | 1022.8 |
| 20260906063004 | 61 | 260 | 6.0 | 10.0 | 0.00 | 0.08 | 0.07 | 73 | 1022.8 |
| 20260906062503 | 61 | 260 | 6.0 | 10.0 | 0.00 | 0.08 | 0.07 | 73 | 1022.8 |
| 20260906062003 | 61 | 256 | 5.0 | 10.0 | 0.00 | 0.08 | 0.07 | 73 | 1022.7 |
| 20260906061503 | 61 | 250 | 6.0 | 10.0 | 0.00 | 0.08 | 0.07 | 73 | 1022.6 |
| 20260906061003 | 60 | 242 | 7.0 | 10.0 | 0.00 | 0.08 | 0.07 | 73 | 1022.6 |
| 20260906060504 | 60 | 240 | 8.0 | 10.0 | 0.00 | 0.08 | 0.07 | 73 | 1022.6 |
| 20260906060024 | 60 | 246 | 7.0 | 14.0 | 0.00 | 0.08 | 0.07 | 74 | 1022.7 |
| 20260906055524 | 60 | 240 | 6.0 | 14.0 | 0.00 | 0.08 | 0.07 | 73 | 1022.7 |
| 20260906055004 | 60 | 222 | 5.0 | 11.0 | 0.00 | 0.08 | 0.07 | 74 | 1022.6 |
| 20260906054504 | 60 | 230 | 5.0 | 10.0 | 0.00 | 0.08 | 0.07 | 75 | 1022.5 |
| 20260906054004 | 60 | 243 | 5.0 | 10.0 | 0.00 | 0.08 | 0.07 | 75 | 1022.5 |
| 20260906053503 | 60 | 234 | 5.0 | 10.0 | 0.00 | 0.08 | 0.07 | 75 | 1022.4 |
| 20260906053004 | 60 | 216 | 5.0 | 10.0 | 0.00 | 0.08 | 0.07 | 76 | 1022.4 |
| 20260906052503 | 60 | 206 | 5.0 | 10.0 | 0.00 | 0.08 | 0.07 | 76 | 1022.2 |
| 20260906052004 | 61 | 208 | 5.0 | 11.0 | 0.00 | 0.08 | 0.07 | 76 | 1022.2 |
| 20260906051504 | 61 | 233 | 5.0 | 11.0 | 0.00 | 0.08 | 0.07 | 75 | 1022.1 |
| 20260906051003 | 61 | 239 | 5.0 | 9.0 | 0.00 | 0.08 | 0.07 | 74 | 1022.1 |
| 20260906050504 | 61 | 241 | 5.0 | 9.0 | 0.00 | 0.08 | 0.07 | 75 | 1022.1 |
| 20260906050003 | 61 | 246 | 6.0 | 9.0 | 0.00 | 0.08 | 0.07 | 74 | 1022.1 |
| 20260906045524 | 61 | 242 | 6.0 | 9.0 | 0.00 | 0.08 | 0.07 | 76 | 1022.1 |
| 20260906045003 | 61 | 250 | 6.0 | 10.0 | 0.00 | 0.08 | 0.07 | 75 | 1022.1 |
| 20260906044503 | 61 | 244 | 6.0 | 11.0 | 0.00 | 0.08 | 0.07 | 75 | 1022.0 |
| 20260906044003 | 61 | 233 | 6.0 | 11.0 | 0.00 | 0.08 | 0.07 | 74 | 1022.0 |
| 20260906043503 | 61 | 228 | 7.0 | 10.0 | 0.00 | 0.08 | 0.07 | 75 | 1022.0 |
| 20260906043004 | 61 | 226 | 7.0 | 13.0 | 0.00 | 0.08 | 0.07 | 75 | 1022.2 |
| 20260906042503 | 61 | 229 | 8.0 | 13.0 | 0.00 | 0.08 | 0.07 | 76 | 1022.2 |
| 20260906042003 | 61 | 219 | 7.0 | 13.0 | 0.00 | 0.08 | 0.07 | 76 | 1022.2 |
| 20260906041504 | 61 | 215 | 7.0 | 13.0 | 0.00 | 0.08 | 0.07 | 76 | 1022.2 |
| 20260906041004 | 61 | 224 | 8.0 | 13.0 | 0.00 | 0.08 | 0.07 | 77 | 1022.2 |
| 20260906040503 | 61 | 237 | 7.0 | 14.0 | 0.00 | 0.08 | 0.07 | 77 | 1022.3 |
| 20260906040004 | 61 | 239 | 7.0 | 14.0 | 0.00 | 0.08 | 0.07 | 76 | 1022.3 |
| 20260906035503 | 61 | 245 | 7.0 | 11.0 | 0.00 | 0.08 | 0.07 | 76 | 1022.4 |
| 20260906035025 | 62 | 256 | 7.0 | 11.0 | 0.00 | 0.08 | 0.07 | 77 | 1022.4 |
| 20260906034504 | 61 | 254 | 7.0 | 11.0 | 0.00 | 0.08 | 0.07 | 78 | 1022.4 |
| 20260906034003 | 60 | 263 | 6.0 | 11.0 | 0.00 | 0.08 | 0.07 | 79 | 1022.4 |
| 20260906033503 | 60 | 257 | 7.0 | 10.0 | 0.00 | 0.08 | 0.07 | 78 | 1022.5 |
| 20260906033004 | 60 | 246 | 7.0 | 10.0 | 0.00 | 0.08 | 0.07 | 80 | 1022.5 |
| 20260906032503 | 60 | 257 | 6.0 | 11.0 | 0.00 | 0.08 | 0.07 | 80 | 1022.6 |
| 20260906032003 | 60 | 268 | 4.0 | 11.0 | 0.00 | 0.08 | 0.07 | 78 | 1022.6 |
| 20260906031503 | 60 | 255 | 5.0 | 10.0 | 0.00 | 0.08 | 0.07 | 78 | 1022.7 |
| 20260906031003 | 60 | 235 | 5.0 | 9.0 | 0.00 | 0.08 | 0.07 | 80 | 1022.8 |
| 20260906030504 | 59 | 239 | 5.0 | 10.0 | 0.00 | 0.08 | 0.07 | 80 | 1022.8 |
| 20260906030024 | 59 | 234 | 6.0 | 10.0 | 0.00 | 0.08 | 0.07 | 80 | 1022.9 |
| 20260906025503 | 59 | 231 | 7.0 | 11.0 | 0.00 | 0.08 | 0.07 | 81 | 1022.9 |
| 20260906025024 | 59 | 238 | 7.0 | 11.0 | 0.00 | 0.08 | 0.07 | 81 | 1022.9 |
| 20260906024504 | 59 | 251 | 7.0 | 11.0 | 0.00 | 0.08 | 0.07 | 81 | 1023.0 |
| 20260906024004 | 59 | 256 | 6.0 | 11.0 | 0.00 | 0.08 | 0.07 | 81 | 1022.9 |
| 20260906023503 | 59 | 248 | 6.0 | 10.0 | 0.00 | 0.08 | 0.07 | 81 | 1022.9 |
| 20260906023025 | 59 | 244 | 5.0 | 10.0 | 0.00 | 0.08 | 0.07 | 82 | 1023.0 |
| 20260906022503 | 59 | 224 | 5.0 | 10.0 | 0.00 | 0.08 | 0.07 | 82 | 1023.1 |
| 20260906022003 | 59 | 210 | 5.0 | 9.0 | 0.00 | 0.08 | 0.07 | 83 | 1023.1 |
| 20260906021524 | 59 | 217 | 5.0 | 9.0 | 0.00 | 0.08 | 0.07 | 84 | 1023.1 |
| 20260906021004 | 58 | 219 | 5.0 | 9.0 | 0.00 | 0.08 | 0.07 | 84 | 1023.2 |
| 20260906020503 | 58 | 221 | 5.0 | 9.0 | 0.00 | 0.08 | 0.07 | 84 | 1023.2 |
| 20260906020003 | 58 | 228 | 5.0 | 10.0 | 0.00 | 0.08 | 0.07 | 85 | 1023.2 |
| 20260906015503 | 58 | 226 | 5.0 | 10.0 | 0.00 | 0.08 | 0.07 | 85 | 1023.2 |
| 20260906015004 | 58 | 233 | 5.0 | 9.0 | 0.00 | 0.08 | 0.07 | 85 | 1023.3 |
| 20260906014524 | 58 | 246 | 6.0 | 9.0 | 0.00 | 0.08 | 0.07 | 84 | 1023.2 |
| 20260906014003 | 58 | 258 | 6.0 | 10.0 | 0.00 | 0.08 | 0.07 | 84 | 1023.2 |
| 20260906013503 | 58 | 265 | 4.0 | 10.0 | 0.00 | 0.08 | 0.07 | 83 | 1023.2 |
| 20260906013004 | 58 | 268 | 2.0 | 10.0 | 0.00 | 0.08 | 0.07 | 81 | 1023.3 |
| 20260906012504 | 59 | 238 | 1.0 | 6.0 | 0.00 | 0.08 | 0.07 | 82 | 1023.4 |
| 20260906012003 | 59 | 241 | 1.0 | 5.0 | 0.00 | 0.08 | 0.07 | 82 | 1023.4 |
| 20260906011503 | 59 | 284 | 2.0 | 5.0 | 0.00 | 0.08 | 0.07 | 84 | 1023.5 |
| 20260906011003 | 59 | 223 | 2.0 | 5.0 | 0.00 | 0.08 | 0.07 | 84 | 1023.6 |
| 20260906010504 | 59 | 231 | 2.0 | 6.0 | 0.00 | 0.08 | 0.07 | 85 | 1023.6 |
| 20260906010003 | 58 | 229 | 1.0 | 6.0 | 0.01 | 0.08 | 0.07 | 87 | 1023.6 |
| 20260906005503 | 58 | 224 | 1.0 | 5.0 | 0.01 | 0.08 | 0.07 | 88 | 1023.5 |
| 20260906005025 | 58 | 236 | 2.0 | 5.0 | 0.02 | 0.08 | 0.07 | 89 | 1023.5 |
| 20260906004503 | 58 | 188 | 3.0 | 6.0 | 0.02 | 0.08 | 0.07 | 89 | 1023.5 |
| 20260906004004 | 57 | 206 | 4.0 | 8.0 | 0.02 | 0.08 | 0.07 | 90 | 1023.5 |
| 20260906003504 | 56 | 216 | 4.0 | 8.0 | 0.02 | 0.08 | 0.07 | 90 | 1023.5 |
| 20260906003003 | 56 | 224 | 4.0 | 8.0 | 0.02 | 0.10 | 0.07 | 90 | 1023.5 |
| 20260906002504 | 55 | 252 | 4.0 | 8.0 | 0.02 | 0.13 | 0.07 | 90 | 1023.4 |
| 20260906002003 | 56 | 278 | 5.0 | 9.0 | 0.03 | 0.13 | 0.07 | 91 | 1023.4 |
| 20260906001525 | 55 | 267 | 5.0 | 9.0 | 0.03 | 0.13 | 0.07 | 90 | 1023.4 |
| 20260906001004 | 55 | 268 | 5.0 | 10.0 | 0.03 | 0.13 | 0.07 | 90 | 1023.4 |
| 20260906000504 | 56 | 282 | 4.0 | 10.0 | 0.03 | 0.13 | 0.07 | 90 | 1023.3 |
| 20260906000004 | 56 | 283 | 3.0 | 8.0 | 0.02 | 0.12 | 0.06 | 90 | 1023.3 |
| 20260905235505 | 56 | 277 | 3.0 | 6.0 | 0.02 | 0.12 | 0.06 | 90 | 1023.3 |
| 20260905235025 | 56 | 267 | 3.0 | 6.0 | 0.02 | 0.13 | 0.06 | 91 | 1023.2 |
| 20260905234504 | 55 | 266 | 3.0 | 5.0 | 0.02 | 0.19 | 0.06 | 90 | 1023.2 |
| 20260905234004 | 55 | 266 | 3.0 | 5.0 | 0.02 | 0.24 | 0.06 | 90 | 1023.2 |
| 20260905233504 | 55 | 259 | 3.0 | 5.0 | 0.02 | 0.24 | 0.06 | 90 | 1023.2 |
| 20260905233004 | 55 | 271 | 2.0 | 5.0 | 0.02 | 0.23 | 0.05 | 90 | 1023.1 |
| 20260905232504 | 55 | 287 | 1.0 | 5.0 | 0.02 | 0.23 | 0.05 | 91 | 1023.1 |
| 20260905232004 | 55 | 302 | 1.0 | 5.0 | 0.01 | 0.22 | 0.04 | 91 | 1023.0 |
| 20260905231504 | 55 | 301 | 1.0 | 5.0 | 0.01 | 0.22 | 0.04 | 90 | 1022.9 |
| 20260905231004 | 55 | 311 | 2.0 | 5.0 | 0.01 | 0.22 | 0.04 | 91 | 1022.8 |
| 20260905230504 | 54 | 337 | 3.0 | 5.0 | 0.01 | 0.22 | 0.04 | 91 | 1022.8 |
| 20260905230004 | 54 | 354 | 5.0 | 6.0 | 0.01 | 0.22 | 0.04 | 91 | 1022.8 |
| 20260905225504 | 54 | 348 | 5.0 | 8.0 | 0.01 | 0.22 | 0.04 | 91 | 1022.7 |
| 20260905225025 | 54 | 341 | 5.0 | 8.0 | 0.01 | 0.22 | 0.04 | 91 | 1022.7 |
| 20260905224504 | 54 | 342 | 5.0 | 6.0 | 0.00 | 0.21 | 0.03 | 91 | 1022.6 |
| 20260905224004 | 54 | 340 | 4.0 | 6.0 | 0.00 | 0.21 | 0.03 | 91 | 1022.5 |
| 20260905223525 | 54 | 335 | 4.0 | 6.0 | 0.00 | 0.21 | 0.03 | 91 | 1022.5 |
| 20260905223025 | 54 | 330 | 3.0 | 6.0 | 0.00 | 0.21 | 0.03 | 91 | 1022.4 |
| 20260905222504 | 54 | 311 | 1.0 | 6.0 | 0.00 | 0.21 | 0.03 | 91 | 1022.4 |
| 20260905222004 | 54 | 280 | 0.0 | 5.0 | 0.01 | 0.21 | 0.03 | 91 | 1022.3 |
| 20260905221504 | 54 | 212 | 0.0 | 1.0 | 0.01 | 0.21 | 0.03 | 91 | 1022.2 |
| 20260905221004 | 54 | 212 | 0.0 | 3.0 | 0.01 | 0.21 | 0.03 | 91 | 1022.1 |
| 20260905220504 | 54 | 212 | 0.0 | 3.0 | 0.01 | 0.21 | 0.03 | 91 | 1022.0 |
| 20260905220004 | 54 | 0 | 0.0 | 0.0 | 0.02 | 0.21 | 0.03 | 91 | 1021.9 |
| 20260905215504 | 54 | 0 | 0.0 | 0.0 | 0.02 | 0.21 | 0.03 | 91 | 1021.8 |
| 20260905215004 | 53 | 212 | 1.0 | 1.0 | 0.02 | 0.21 | 0.03 | 91 | 1021.7 |
| 20260905214525 | 53 | 207 | 1.0 | 6.0 | 0.02 | 0.21 | 0.03 | 91 | 1021.7 |
| 20260905214004 | 53 | 199 | 1.0 | 6.0 | 0.02 | 0.21 | 0.03 | 91 | 1021.7 |
| 20260905213504 | 53 | 191 | 2.0 | 6.0 | 0.02 | 0.21 | 0.03 | 91 | 1021.6 |
| 20260905213004 | 53 | 187 | 2.0 | 6.0 | 0.02 | 0.21 | 0.03 | 91 | 1021.5 |
| 20260905212504 | 53 | 186 | 2.0 | 6.0 | 0.02 | 0.21 | 0.03 | 91 | 1021.4 |
| 20260905212025 | 53 | 204 | 3.0 | 6.0 | 0.01 | 0.20 | 0.02 | 91 | 1021.3 |
| 20260905211504 | 53 | 217 | 4.0 | 8.0 | 0.01 | 0.20 | 0.02 | 91 | 1021.2 |
| 20260905211004 | 53 | 226 | 3.0 | 13.0 | 0.01 | 0.20 | 0.02 | 91 | 1021.1 |
| 20260905210504 | 53 | 224 | 1.0 | 13.0 | 0.01 | 0.20 | 0.02 | 91 | 1021.0 |
| 20260905210024 | 53 | 217 | 0.0 | 6.0 | 0.00 | 0.20 | 0.02 | 90 | 1020.9 |
| 20260905205524 | 53 | 215 | 0.0 | 3.0 | 0.00 | 0.20 | 0.02 | 90 | 1020.8 |
| 20260905205025 | 53 | 215 | 0.0 | 1.0 | 0.01 | 0.20 | 0.02 | 90 | 1020.8 |
| 20260905204503 | 53 | 215 | 0.0 | 1.0 | 0.01 | 0.20 | 0.02 | 90 | 1020.8 |
| 20260905204004 | 53 | 215 | 0.0 | 1.0 | 0.01 | 0.20 | 0.02 | 90 | 1020.8 |
| 20260905203504 | 52 | 215 | 0.0 | 1.0 | 0.01 | 0.20 | 0.02 | 90 | 1020.7 |
| 20260905203003 | 52 | 0 | 0.0 | 0.0 | 0.01 | 0.20 | 0.02 | 90 | 1020.7 |
| 20260905202504 | 52 | 0 | 0.0 | 0.0 | 0.01 | 0.20 | 0.02 | 90 | 1020.7 |
| 20260905202004 | 52 | 215 | 1.0 | 3.0 | 0.01 | 0.20 | 0.02 | 90 | 1020.7 |
| 20260905201503 | 52 | 218 | 0.0 | 3.0 | 0.01 | 0.20 | 0.02 | 90 | 1020.6 |
| 20260905201003 | 52 | 219 | 0.0 | 3.0 | 0.01 | 0.20 | 0.02 | 90 | 1020.6 |
| 20260905200525 | 52 | 0 | 0.0 | 0.0 | 0.01 | 0.20 | 0.02 | 90 | 1020.5 |
| 20260905200004 | 52 | 0 | 0.0 | 0.0 | 0.01 | 0.20 | 0.02 | 90 | 1020.5 |
| 20260905195503 | 52 | 0 | 0.0 | 0.0 | 0.01 | 0.20 | 0.02 | 90 | 1020.4 |
| 20260905195004 | 52 | 0 | 0.0 | 0.0 | 0.00 | 0.19 | 0.01 | 90 | 1020.3 |
| 20260905194504 | 52 | 0 | 0.0 | 0.0 | 0.00 | 0.19 | 0.01 | 90 | 1020.3 |
| 20260905194004 | 52 | 0 | 0.0 | 0.0 | 0.00 | 0.19 | 0.01 | 90 | 1020.2 |
| 20260905193504 | 52 | 234 | 0.0 | 1.0 | 0.00 | 0.19 | 0.01 | 89 | 1020.2 |
| 20260905193003 | 53 | 234 | 0.0 | 1.0 | 0.00 | 0.19 | 0.01 | 90 | 1020.2 |
| 20260905192504 | 53 | 234 | 0.0 | 1.0 | 0.00 | 0.19 | 0.01 | 90 | 1020.2 |
| 20260905192004 | 53 | 0 | 0.0 | 0.0 | 0.00 | 0.19 | 0.01 | 90 | 1020.2 |
| 20260905191504 | 53 | 234 | 0.0 | 3.0 | 0.00 | 0.19 | 0.01 | 89 | 1020.2 |
| 20260905191003 | 53 | 234 | 0.0 | 3.0 | 0.00 | 0.19 | 0.01 | 89 | 1020.2 |
| 20260905190503 | 53 | 234 | 1.0 | 3.0 | 0.00 | 0.19 | 0.01 | 89 | 1020.1 |
| 20260905190003 | 53 | 227 | 2.0 | 5.0 | 0.00 | 0.19 | 0.01 | 89 | 1020.1 |
| 20260905185503 | 53 | 221 | 2.0 | 5.0 | 0.00 | 0.19 | 0.01 | 89 | 1020.1 |
| 20260905185004 | 53 | 223 | 1.0 | 5.0 | 0.00 | 0.19 | 0.01 | 89 | 1020.0 |
| 20260905184504 | 53 | 242 | 2.0 | 5.0 | 0.00 | 0.19 | 0.01 | 89 | 1020.0 |
| 20260905184003 | 53 | 246 | 3.0 | 5.0 | 0.00 | 0.19 | 0.01 | 89 | 1019.9 |
| 20260905183503 | 53 | 246 | 3.0 | 6.0 | 0.01 | 0.19 | 0.01 | 89 | 1019.8 |